Tracking 30918 objects as of 3-Jul-2025
HD Live streaming from Space Station
objects crossing your sky now

CZ-4B R/B

Track CZ-4B R/B now!
10-day predictions


NORAD ID: 44531
Int'l Code: 2019-059D
Perigee: 444.4 km
Apogee: 646.1 km
Inclination: 98.7 °
Period: 95.4 minutes
Semi major axis: 6916 km
RCS: Unknown
Launch date: September 12, 2019
Source: People's Republic of China (PRC)
Launch site: Taiyaun Space Center, China (TSC)

Note: This is a ROCKET BODY
Your satellite tracking list
Your tracking list is empty




NASA's NSSDC Master Catalog

Two Line Element Set (TLE):
1 44531U 19059D   25183.93842065  .00006012  00000-0  29757-3 0  9999
2 44531  98.7085 162.0334 0145777 323.6830  35.4569 15.09379599316965
Source of the keplerian elements: AFSPC